G6SGA Weather Reports


time (UTC)temp
C
wind
direction
speed
KPH
gust
KPH
rain 1hr
cm
rain 24hr
cm
rain mn
cm
humidity
%
barometer
mb
20260507171503 13 185 3.2 9.7 0.00 0.00 0.00 54 1028.2
20260507171003 13 185 3.2 8.0 0.00 0.00 0.00 53 1028.2
20260507170503 13 179 3.2 6.4 0.00 0.00 0.00 52 1028.2
20260507170211 13 180 3.2 6.4 0.00 0.00 0.00 51 1028.2
20260507165504 13 206 1.6 9.7 0.00 0.00 0.00 51 1028.2
20260507165210 13 211 3.2 9.7 0.00 0.00 0.00 51 1028.2
20260507164503 13 218 3.2 6.4 0.00 0.00 0.00 51 1028.2
20260507164003 13 203 1.6 6.4 0.00 0.00 0.00 51 1028.2
20260507163503 13 190 1.6 6.4 0.00 0.00 0.00 52 1028.2
20260507163003 13 188 1.6 6.4 0.00 0.00 0.00 52 1028.2
20260507162503 13 169 3.2 8.0 0.00 0.00 0.00 51 1028.2
20260507162003 14 160 3.2 8.0 0.00 0.00 0.00 51 1028.2
20260507161503 14 169 3.2 8.0 0.00 0.00 0.00 50 1028.2
20260507161004 14 189 3.2 8.0 0.00 0.00 0.00 51 1028.2
20260507160504 14 216 3.2 11.3 0.00 0.00 0.00 51 1028.2
20260507160211 14 204 3.2 11.3 0.00 0.00 0.00 51 1028.2
20260507155503 14 177 3.2 9.7 0.00 0.00 0.00 51 1028.2
20260507155003 15 188 4.8 12.9 0.00 0.00 0.00 50 1028.2
20260507154504 15 173 4.8 12.9 0.00 0.00 0.00 49 1028.2
20260507154003 15 178 3.2 11.3 0.00 0.00 0.00 50 1028.2
20260507153504 15 195 3.2 11.3 0.00 0.00 0.00 49 1028.2
20260507153003 15 175 3.2 11.3 0.00 0.00 0.00 50 1028.2
20260507152503 14 167 3.2 11.3 0.00 0.00 0.00 51 1028.2
20260507152003 15 185 3.2 9.7 0.00 0.00 0.00 50 1028.2
20260507151504 15 220 3.2 9.7 0.00 0.00 0.00 51 1028.2
20260507151003 15 227 3.2 9.7 0.00 0.00 0.00 51 1028.2
20260507150504 15 213 4.8 11.3 0.00 0.00 0.00 51 1028.2
20260507150211 15 200 4.8 11.3 0.00 0.00 0.00 50 1028.2
20260507145503 15 167 4.8 11.3 0.00 0.00 0.00 50 1028.2
20260507145003 15 177 3.2 9.7 0.00 0.00 0.00 51 1028.2
20260507144503 15 191 3.2 9.7 0.00 0.00 0.00 51 1028.2
20260507144003 15 213 4.8 11.3 0.00 0.00 0.00 51 1028.2
20260507143503 15 212 4.8 11.3 0.00 0.00 0.00 51 1028.2
20260507143211 15 206 4.8 11.3 0.00 0.00 0.00 50 1028.2
20260507142711 15 199 4.8 9.7 0.00 0.00 0.00 51 1028.2
20260507142003 15 191 3.2 9.7 0.00 0.00 0.00 50 1028.2
20260507141711 15 184 3.2 8.0 0.00 0.00 0.00 50 1028.2
20260507141003 15 210 4.8 11.3 0.00 0.00 0.00 50 1028.2
20260507140503 15 222 4.8 11.3 0.00 0.00 0.00 50 1028.2
20260507140004 15 216 4.8 9.7 0.00 0.00 0.00 49 1028.2
20260507135504 14 160 4.8 12.9 0.00 0.00 0.00 49 1028.2
20260507135003 14 155 4.8 12.9 0.00 0.00 0.00 50 1028.2
20260507134503 15 175 4.8 12.9 0.00 0.00 0.00 51 1028.2
20260507134003 14 164 4.8 12.9 0.00 0.00 0.00 51 1028.2
20260507133503 14 177 4.8 11.3 0.00 0.00 0.00 52 1028.2
20260507133004 14 160 4.8 11.3 0.00 0.00 0.00 52 1028.2
20260507132711 14 156 4.8 14.5 0.00 0.00 0.00 53 1028.2
20260507132004 14 195 4.8 14.5 0.00 0.00 0.00 54 1028.2
20260507131503 13 187 4.8 12.9 0.00 0.00 0.00 55 1028.2
20260507131004 13 155 4.8 11.3 0.00 0.00 0.00 55 1028.2
20260507130503 13 149 4.8 9.7 0.00 0.00 0.00 57 1028.2
20260507130004 13 176 3.2 9.7 0.00 0.00 0.00 56 1028.2
20260507125503 13 166 3.2 9.7 0.00 0.00 0.00 56 1028.2
20260507125004 13 140 4.8 14.5 0.00 0.00 0.00 58 1028.2
20260507124503 13 160 4.8 14.5 0.00 0.00 0.00 58 1028.2
20260507124003 13 185 4.8 14.5 0.00 0.00 0.00 59 1028.2
20260507123503 13 173 4.8 14.5 0.00 0.00 0.00 57 1028.2
20260507123003 13 176 4.8 14.5 0.00 0.00 0.00 60 1028.2
20260507122504 12 151 4.8 14.5 0.00 0.00 0.00 63 1028.2
20260507122004 12 132 4.8 14.5 0.00 0.00 0.00 65 1028.2
20260507121504 12 142 4.8 14.5 0.00 0.00 0.00 64 1028.2
20260507121004 12 144 4.8 12.9 0.00 0.00 0.00 65 1028.2
20260507120504 12 160 4.8 11.3 0.00 0.00 0.00 65 1028.2
20260507120004 12 203 4.8 11.3 0.00 0.00 0.00 64 1028.2
20260507115503 12 197 4.8 12.9 0.00 0.00 0.00 64 1028.2
20260507115003 12 166 4.8 12.9 0.00 0.00 0.00 65 1028.2
20260507114504 12 152 4.8 11.3 0.00 0.00 0.00 66 1028.2
20260507114003 11 169 4.8 11.3 0.00 0.00 0.00 66 1028.2
20260507113503 11 179 4.8 11.3 0.00 0.00 0.00 68 1028.2
20260507113004 11 155 3.2 11.3 0.00 0.00 0.00 68 1028.2
20260507112711 11 141 3.2 11.3 0.00 0.00 0.00 69 1028.2
20260507112004 11 140 4.8 11.3 0.00 0.00 0.00 71 1028.2
20260507111504 10 140 4.8 14.5 0.00 0.00 0.00 70 1028.2
20260507111210 10 140 4.8 14.5 0.00 0.00 0.00 70 1028.2
20260507110503 10 153 4.8 12.9 0.00 0.00 0.00 69 1028.2
20260507110211 10 149 4.8 11.3 0.00 0.00 0.00 70 1028.2
20260507105503 10 135 4.8 16.1 0.00 0.00 0.00 72 1028.2
20260507105004 10 140 4.8 16.1 0.00 0.00 0.00 73 1028.2
20260507104504 10 147 4.8 11.3 0.00 0.00 0.00 73 1028.2
20260507104003 10 145 4.8 11.3 0.00 0.00 0.00 74 1028.2
20260507103503 9 144 4.8 11.3 0.00 0.00 0.00 76 1028.2
20260507103003 9 135 6.4 14.5 0.00 0.00 0.00 77 1028.2
20260507102503 9 132 4.8 14.5 0.00 0.00 0.00 77 1028.2
20260507102003 9 136 4.8 14.5 0.00 0.00 0.00 77 1028.2
20260507101503 8 135 6.4 14.5 0.00 0.00 0.00 78 1028.2
20260507101003 8 134 6.4 14.5 0.00 0.00 0.00 79 1028.2
20260507100503 8 130 4.8 12.9 0.00 0.00 0.00 79 1028.2
20260507100211 8 132 4.8 12.9 0.00 0.00 0.00 79 1028.2
20260507095503 8 132 6.4 14.5 0.00 0.00 0.00 79 1028.2
20260507095003 8 128 6.4 12.9 0.00 0.00 0.00 81 1028.2
20260507094503 8 134 6.4 12.9 0.00 0.00 0.00 82 1028.2
20260507094004 8 135 4.8 12.9 0.00 0.00 0.00 82 1028.2
20260507093503 8 136 4.8 11.3 0.00 0.00 0.00 82 1028.2
20260507093004 8 137 6.4 12.9 0.00 0.00 0.00 82 1028.2
20260507092711 8 137 6.4 12.9 0.00 0.00 0.00 82 1028.2
20260507092003 8 133 6.4 14.5 0.00 0.00 0.00 84 1028.2
20260507091503 8 135 6.4 14.5 0.00 0.00 0.00 83 1028.2
20260507091003 7 139 6.4 12.9 0.00 0.00 0.00 83 1028.2
20260507090503 7 141 6.4 14.5 0.00 0.00 0.00 84 1028.2
20260507090004 7 137 6.4 14.5 0.00 0.00 0.00 84 1028.2
20260507085710 7 137 6.4 12.9 0.00 0.00 0.00 84 1028.2
20260507085003 7 129 6.4 12.9 0.00 0.00 0.00 85 1028.2
20260507084711 7 130 6.4 12.9 0.00 0.00 0.00 85 1028.2
20260507084004 7 137 4.8 11.3 0.00 0.00 0.00 86 1028.2
20260507083503 7 136 6.4 14.5 0.00 0.00 0.00 86 1028.2
20260507083004 7 136 6.4 14.5 0.00 0.00 0.00 86 1028.2
20260507082503 7 137 6.4 14.5 0.00 0.00 0.00 87 1028.2
20260507082003 7 139 6.4 14.5 0.00 0.00 0.00 87 1028.2
20260507081503 7 133 6.4 14.5 0.00 0.00 0.00 88 1028.2
20260507081003 7 132 4.8 12.9 0.00 0.00 0.00 88 1028.2
20260507080503 6 135 4.8 11.3 0.00 0.00 0.00 88 1028.2
20260507080004 6 128 4.8 11.3 0.00 0.00 0.00 88 1028.2
20260507075503 6 125 4.8 14.5 0.00 0.00 0.00 88 1028.2
20260507075003 6 126 6.4 14.5 0.00 0.00 0.00 88 1028.2
20260507074503 6 130 4.8 12.9 0.00 0.00 0.00 89 1028.2
20260507074003 6 134 6.4 12.9 0.00 0.00 0.00 89 1028.2
20260507073504 6 136 4.8 11.3 0.00 0.00 0.00 89 1028.2
20260507073004 6 135 4.8 12.9 0.00 0.00 0.00 89 1028.2
20260507072711 6 134 4.8 12.9 0.00 0.00 0.00 89 1028.2
20260507072004 6 137 4.8 11.3 0.00 0.00 0.00 90 1028.2
20260507071504 6 138 4.8 11.3 0.00 0.00 0.00 90 1028.2
20260507071003 6 134 4.8 12.9 0.00 0.00 0.00 90 1028.2
20260507070711 6 126 4.8 12.9 0.00 0.00 0.00 91 1028.2
20260507070008 6 132 4.8 11.3 0.00 0.00 0.00 91 1028.2
20260507065503 6 133 4.8 12.9 0.00 0.00 0.00 91 1028.2
20260507065003 5 133 4.8 12.9 0.00 0.00 0.00 91 1028.2
20260507064504 5 138 4.8 12.9 0.00 0.00 0.00 92 1028.2
20260507064003 5 136 6.4 11.3 0.00 0.00 0.00 92 1028.2
20260507063503 5 128 6.4 12.9 0.00 0.00 0.00 92 1028.2
20260507063003 5 131 6.4 17.7 0.00 0.00 0.00 93 1028.2
20260507062710 5 130 6.4 17.7 0.00 0.00 0.00 93 1028.2
20260507062210 5 133 6.4 17.7 0.00 0.00 0.00 93 1028.2
20260507061503 5 131 6.4 12.9 0.00 0.00 0.00 93 1028.2
20260507061003 5 133 6.4 14.5 0.00 0.00 0.00 93 1028.2
20260507060503 5 136 6.4 14.5 0.00 0.00 0.00 93 1028.2
20260507060004 5 134 6.4 12.9 0.00 0.00 0.00 93 1028.2
20260507055710 5 134 6.4 12.9 0.00 0.00 0.00 93 1028.2
20260507055211 5 135 8.0 14.5 0.00 0.00 0.00 93 1028.2
20260507054503 5 135 6.4 14.5 0.00 0.00 0.00 93 1028.2
20260507054003 5 141 6.4 14.5 0.00 0.00 0.00 93 1028.2
20260507053503 5 139 8.0 14.5 0.00 0.00 0.00 93 1028.2
20260507053004 5 133 6.4 12.9 0.00 0.00 0.00 93 1028.2
20260507052503 5 131 6.4 14.5 0.00 0.00 0.00 93 1028.2
20260507052003 5 135 6.4 14.5 0.00 0.00 0.00 93 1028.2
20260507051503 5 133 6.4 12.9 0.00 0.00 0.00 93 1028.2
20260507051003 5 132 6.4 14.5 0.00 0.00 0.00 93 1028.2
20260507050710 5 134 6.4 16.1 0.00 0.00 0.00 93 1028.2
20260507050211 5 134 6.4 16.1 0.00 0.00 0.00 93 1028.2
20260507045503 5 132 6.4 12.9 0.00 0.00 0.00 93 1028.2
20260507045004 5 128 6.4 12.9 0.00 0.00 0.00 93 1028.2
20260507044711 5 125 6.4 12.9 0.00 0.00 0.00 93 1028.2
20260507044004 4 123 4.8 12.9 0.00 0.00 0.00 93 1028.2
20260507043503 4 125 4.8 11.3 0.00 0.00 0.00 93 1028.2
20260507043003 4 128 6.4 11.3 0.00 0.00 0.00 93 1028.2
20260507042503 4 134 4.8 11.3 0.00 0.00 0.00 93 1028.2
20260507042211 4 133 4.8 12.9 0.00 0.00 0.00 93 1028.2
20260507041503 4 131 6.4 12.9 0.00 0.00 0.00 93 1028.2
20260507041004 4 128 6.4 12.9 0.00 0.00 0.00 93 1028.2
20260507040503 4 129 4.8 9.7 0.00 0.00 0.00 93 1028.2
20260507040005 4 135 4.8 9.7 0.00 0.00 0.00 92 1028.2
20260507035711 4 133 4.8 14.5 0.00 0.00 0.00 92 1028.2
20260507035004 4 129 6.4 14.5 0.00 0.00 0.00 92 1028.2
20260507034504 4 134 4.8 11.3 0.00 0.00 0.00 92 1028.2
20260507034008 4 133 6.4 12.9 0.00 0.00 0.00 92 1028.2
20260507033503 4 133 6.4 12.9 0.00 0.00 0.00 92 1028.2
20260507033006 4 134 6.4 12.9 0.00 0.00 0.00 92 1028.2
20260507032504 4 132 6.4 11.3 0.00 0.00 0.00 92 1028.2
20260507032003 4 135 6.4 11.3 0.00 0.00 0.00 91 1028.2
20260507031503 5 136 4.8 11.3 0.00 0.00 0.00 91 1028.2
20260507031003 5 131 4.8 11.3 0.00 0.00 0.00 91 1028.2
20260507030503 5 130 4.8 9.7 0.00 0.00 0.00 91 1028.2
20260507030004 5 130 4.8 11.3 0.00 0.00 0.00 91 1028.2
20260507025503 5 130 4.8 11.3 0.00 0.00 0.00 91 1028.2
20260507025003 5 129 4.8 11.3 0.00 0.00 0.00 90 1028.2
20260507024503 5 131 4.8 11.3 0.00 0.00 0.00 90 1028.2
20260507024003 5 137 4.8 11.3 0.00 0.00 0.00 90 1028.2
20260507023503 5 132 4.8 11.3 0.00 0.00 0.00 90 1028.2
20260507023211 5 132 4.8 14.5 0.00 0.00 0.00 90 1028.2
20260507022503 5 135 4.8 14.5 0.00 0.00 0.00 90 1028.2
20260507022003 5 127 4.8 12.9 0.00 0.00 0.00 90 1028.2
20260507021503 5 120 4.8 11.3 0.00 0.00 0.00 90 1028.2
20260507021211 5 128 4.8 11.3 0.00 0.00 0.00 90 1028.2
20260507020503 5 128 6.4 14.5 0.00 0.00 0.00 90 1028.2
20260507020004 5 127 6.4 14.5 0.00 0.00 0.00 89 1028.2
20260507015503 5 132 6.4 12.9 0.00 0.00 0.00 90 1028.2
20260507015004 5 132 6.4 12.9 0.00 0.00 0.00 90 1028.2
20260507014711 5 130 6.4 12.9 0.00 0.00 0.00 90 1028.2
20260507014003 5 129 4.8 11.3 0.00 0.00 0.00 89 1028.2
20260507013503 5 137 4.8 12.9 0.00 0.00 0.00 89 1028.2
20260507013004 5 140 6.4 12.9 0.00 0.00 0.00 89 1028.2
20260507012503 5 136 4.8 12.9 0.00 0.00 0.00 89 1028.2
20260507012003 5 129 6.4 14.5 0.00 0.00 0.00 89 1028.2
20260507011503 5 127 6.4 14.5 0.00 0.00 0.00 89 1028.2
20260507011004 5 129 4.8 11.3 0.00 0.00 0.00 89 1028.2
20260507010503 5 129 4.8 11.3 0.00 0.00 0.00 88 1028.2
20260507010004 5 130 4.8 11.3 0.00 0.00 0.00 88 1028.2
20260507005503 5 131 4.8 11.3 0.00 0.00 0.00 88 1028.2
20260507005003 5 130 4.8 11.3 0.00 0.00 0.00 88 1028.2
20260507004711 5 125 4.8 12.9 0.00 0.00 0.00 88 1028.2
20260507004003 5 118 4.8 12.9 0.00 0.00 0.00 88 1028.2
20260507003711 5 125 4.8 14.5 0.00 0.00 0.00 88 1028.2
20260507003003 5 125 4.8 14.5 0.00 0.00 0.00 88 1028.2
20260507002711 5 121 4.8 16.1 0.00 0.00 0.00 88 1028.2
20260507002003 5 129 4.8 16.1 0.00 0.00 0.00 88 1028.2
20260507001504 5 124 4.8 12.9 0.00 0.00 0.00 88 1028.2
20260507001003 5 118 4.8 12.9 0.00 0.00 0.00 88 1028.2
20260507000503 5 123 4.8 14.5 0.00 0.00 0.00 88 1028.2
20260507000004 5 123 6.4 14.5 0.00 0.00 0.00 88 1028.2
20260506235503 5 126 6.4 12.9 0.00 0.00 0.00 88 1028.2
20260506235003 5 128 4.8 12.9 0.00 0.00 0.00 88 1028.2
20260506234504 5 131 4.8 12.9 0.00 0.00 0.00 88 1028.2
20260506234003 5 136 4.8 12.9 0.00 0.00 0.00 87 1028.2
20260506233503 5 133 4.8 12.9 0.00 0.00 0.00 87 1028.2
20260506233003 5 126 4.8 11.3 0.00 0.00 0.00 87 1028.2
20260506232503 6 124 4.8 11.3 0.00 0.00 0.00 86 1028.2
20260506232210 6 126 4.8 11.3 0.00 0.00 0.00 86 1028.2
20260506231711 6 127 4.8 12.9 0.00 0.00 0.00 86 1028.2
20260506231003 6 124 4.8 12.9 0.00 0.00 0.00 86 1028.2
20260506230503 6 123 4.8 11.3 0.00 0.00 0.00 86 1028.2
20260506230005 6 130 4.8 12.9 0.00 0.00 0.00 86 1028.2
20260506225503 6 131 4.8 12.9 0.00 0.00 0.00 86 1028.2
20260506225003 6 122 4.8 11.3 0.00 0.00 0.00 86 1028.2
20260506224710 6 120 4.8 12.9 0.00 0.00 0.00 86 1028.2
20260506224004 6 126 4.8 12.9 0.00 0.00 0.00 86 1028.2
20260506223503 6 126 4.8 12.9 0.00 0.00 0.00 86 1028.2
20260506223003 6 119 6.4 12.9 0.00 0.00 0.00 86 1028.2
20260506222503 6 117 6.4 14.5 0.00 0.00 0.00 86 1028.2
20260506222003 6 123 6.4 14.5 0.00 0.00 0.00 86 1028.2
20260506221504 6 116 6.4 12.9 0.00 0.00 0.00 85 1028.2
20260506221003 6 113 4.8 12.9 0.00 0.00 0.00 85 1028.2
20260506220503 6 119 4.8 12.9 0.00 0.00 0.00 85 1028.2
20260506220004 6 125 4.8 12.9 0.00 0.00 0.00 84 1028.2
20260506215710 6 134 4.8 11.3 0.00 0.00 0.00 84 1028.2
20260506215004 6 131 3.2 9.7 0.00 0.00 0.00 84 1028.2
20260506214503 6 129 3.2 9.7 0.00 0.00 0.00 84 1028.2
20260506214003 6 139 3.2 9.7 0.00 0.00 0.00 84 1028.2
20260506213503 6 141 4.8 9.7 0.00 0.00 0.00 83 1028.2
20260506213004 6 138 3.2 9.7 0.00 0.00 0.00 82 1028.2
20260506212503 6 128 3.2 8.0 0.00 0.00 0.00 82 1028.2
20260506212003 6 118 3.2 8.0 0.00 0.00 0.00 81 1028.2
20260506211503 6 118 3.2 8.0 0.00 0.00 0.00 81 1028.2
20260506211003 6 119 3.2 8.0 0.00 0.00 0.00 81 1028.2
20260506210503 6 121 3.2 11.3 0.00 0.00 0.00 80 1028.2
20260506210211 6 125 3.2 11.3 0.00 0.00 0.00 80 1028.2
20260506205504 6 130 3.2 9.7 0.00 0.00 0.00 80 1028.2
20260506205004 6 119 3.2 8.0 0.00 0.00 0.00 80 1028.2
20260506204503 7 117 3.2 8.0 0.00 0.00 0.00 79 1028.2
20260506204003 7 122 3.2 8.0 0.00 0.00 0.00 79 1028.2
20260506203503 7 133 3.2 8.0 0.00 0.00 0.00 79 1028.2
20260506203003 7 134 3.2 8.0 0.00 0.00 0.00 78 1028.2
20260506202711 7 135 3.2 8.0 0.00 0.00 0.00 78 1028.2
20260506202210 7 130 3.2 9.7 0.00 0.00 0.00 78 1028.2
20260506201503 7 125 3.2 11.3 0.00 0.00 0.00 77 1028.2
20260506201003 7 124 3.2 11.3 0.00 0.00 0.00 77 1028.2
20260506200504 7 130 3.2 8.0 0.00 0.00 0.00 76 1028.2
20260506200004 7 114 3.2 9.7 0.00 0.00 0.00 76 1028.2
20260506195503 7 113 3.2 9.7 0.00 0.00 0.00 75 1028.2
20260506195003 8 130 3.2 12.9 0.00 0.00 0.00 75 1028.2
20260506194503 8 129 3.2 12.9 0.00 0.00 0.00 75 1028.2
20260506194003 8 112 4.8 11.3 0.00 0.00 0.00 74 1028.2
20260506193711 8 108 4.8 12.9 0.00 0.00 0.00 73 1028.2
20260506193003 8 111 4.8 12.9 0.00 0.00 0.00 73 1028.2
20260506192504 8 111 4.8 11.3 0.00 0.00 0.00 73 1028.2
20260506192003 8 112 6.4 12.9 0.00 0.00 0.00 72 1028.2
20260506191711 8 112 6.4 12.9 0.00 0.00 0.00 71 1028.2
20260506191211 8 108 4.8 12.9 0.00 0.00 0.00 70 1028.2
20260506190711 9 103 4.8 12.9 0.00 0.00 0.00 70 1028.2
20260506190005 9 110 4.8 12.9 0.00 0.00 0.00 68 1028.2
20260506185504 9 102 4.8 9.7 0.00 0.00 0.00 68 1028.2
20260506185211 10 108 4.8 9.7 0.00 0.00 0.00 67 1028.2
20260506184711 10 108 4.8 9.7 0.00 0.00 0.00 67 1028.2
20260506184003 10 101 4.8 14.5 0.00 0.00 0.00 66 1028.2
20260506183503 10 123 4.8 14.5 0.00 0.00 0.00 65 1028.2
20260506183004 10 131 4.8 12.9 0.00 0.00 0.00 63 1028.2
20260506182503 10 115 4.8 12.9 0.00 0.00 0.00 63 1028.2
20260506182004 10 101 4.8 11.3 0.00 0.00 0.00 63 1028.2
20260506181503 10 97 4.8 11.3 0.00 0.00 0.00 63 1028.2
20260506181211 10 95 3.2 11.3 0.00 0.00 0.00 63 1028.2
20260506180503 10 109 3.2 9.7 0.00 0.00 0.00 62 1028.2
20260506180005 10 108 3.2 11.3 0.00 0.00 0.00 62 1028.2
20260506175711 10 102 3.2 11.3 0.00 0.00 0.00 61 1028.2
20260506175211 10 103 3.2 9.7 0.00 0.00 0.00 61 1028.2
20260506174503 10 61 4.8 12.9 0.00 0.00 0.00 61 1028.2
20260506174003 10 109 4.8 11.3 0.00 0.00 0.00 61 1028.2
20260506173503 11 130 4.8 11.3 0.00 0.00 0.00 60 1028.2
20260506173004 11 117 3.2 9.7 0.00 0.00 0.00 59 1028.2
20260506172503 11 114 4.8 14.5 0.00 0.00 0.00 60 1028.2
20260506172003 11 113 3.2 14.5 0.00 0.00 0.00 59 1028.2